This demonstration page uses our WeatherBlox Daily Observations layout. Learn more.

Left ArrowRight Arrow

Hourly Observations for September 9, 2020

Temp ( °F °C ) Dew Point ( °F °C ) Humidity (%) Winds ( mph kmh ) Pressure ( in mb ) Visibility ( mi km ) Precip ( " mm )
12:51 am 00:51 Cloudy 77 25 38 3.3 24 24 NW 20 31 29.54 1000 10 16.0934 0 0
1:51 am 01:51 Partly Cloudy 74 23.3 43 6.1 33 33 NW 18 30 29.55 1001 10 16.0934 0 0
2:51 am 02:51 Partly Cloudy 72 22.2 41 5 33 33 NW 16 26 29.57 1001 10 16.0934 0 0
3:51 am 03:51 Clear 70 21.1 39 3.9 32 32 NW 16 26 29.59 1002 10 16.0934 0 0
4:51 am 04:51 Mostly Clear 68 20 39 3.9 35 35 SW 8 13 29.62 1003 10 16.0934 0 0
5:51 am 05:51 Partly Cloudy 64 17.8 40 4.4 41 41 Calm 29.67 1005 10 16.0934 0 0
6:51 am 06:51 Mostly Sunny 65 18.3 40 4.4 40 40 Calm 29.71 1006 10 16.0934 0 0
7:51 am 07:51 Sunny 67 19.4 42 5.6 41 41 WNW 7 11 29.72 1007 10 16.0934 0 0
8:51 am 08:51 Sunny 70 21.1 42 5.6 37 37 Calm 29.73 1007 10 16.0934 0 0
9:51 am 09:51 Sunny 76 24.4 40 4.4 27 27 VRB 3 6 29.72 1007 10 16.0934 0 0
10:51 am 10:51 Sunny 81 27.2 43 6.1 26 26 VRB 3 6 29.7 1006 10 16.0934 0 0
11:51 am 11:51 Mostly Sunny 82 27.8 46 7.8 28 28 VRB 6 9 29.68 1005 10 16.0934 0 0
12:51 pm 12:51 Mostly Cloudy 82 27.8 55 12.8 40 40 SE 5 7 29.65 1004 10 16.0934 0 0
1:51 pm 13:51 Mostly Cloudy 80 26.7 61 16.1 52 52 SSE 14 22 29.67 1005 10 16.0934 0 0
2:51 pm 14:51 Mostly Cloudy 80 26.7 60 15.6 51 51 ESE 12 19 29.67 1005 10 16.0934 0 0
3:51 pm 15:51 Partly Cloudy 80 26.7 58 14.4 47 47 ESE 17 28 29.69 1006 10 16.0934 0 0
4:51 pm 16:51 Sunny 78 25.6 57 13.9 48 48 ESE 16 26 29.72 1007 10 16.0934 0 0
5:51 pm 17:51 Sunny 75 23.9 57 13.9 54 54 ESE 13 20 29.76 1008 10 16.0934 0 0
6:20 pm 18:20 Sunny 71 21.7 56 13.3 59 59 SSE 15 24 29.75 1007 10 16.0934 0 0
6:51 pm 18:51 Clear 69 20.6 56 13.3 63 63 SSE 13 20 29.81 1010 10 16.0934 0 0
7:51 pm 19:51 Clear 66 18.9 55 12.8 68 68 SE 9 15 29.85 1011 10 16.0934 0 0
8:51 pm 20:51 Clear 65 18.3 55 12.8 70 70 SSE 10 17 29.88 1012 10 16.0934 0 0
9:51 pm 21:51 Mostly Cloudy 64 17.8 55 12.8 73 73 SE 7 11 29.91 1013 10 16.0934 0 0
10:51 pm 22:51 Partly Cloudy 63 17.2 54 12.2 73 73 SE 6 9 29.92 1013 10 16.0934 0 0
11:51 pm 23:51 Mostly Cloudy 63 17.2 53 11.7 70 70 S 7 11 29.92 1013 10 16.0934 0 0

Powered by AerisWeather